星链-32353 (STARLINK-32353)

导读 | 豆包AI

STARLINK-32353是美国SpaceX星链互联网卫星星座的一员,于2024年10月18日发射入轨。星链系统旨在为全球用户提供低延迟、高速率的宽带互联网服务,该卫星继承星链设计,运行于近地轨道,通过星间链路与星座协同,持续拓展星链网络覆盖范围,支撑全球卫星互联网服务的部署与运营。

基本信息
目录编号:
61587
目录名称:
STARLINK-32353
国际标识:
2024-187P
轨道中心:
EARTH
卫星名称:
星链-32353
卫星全名:
星链-32353 (STARLINK-32353)
卫星状态:
在轨 (已飞行560 天)
发射日期:
2024-10-18 UTC
国别 :
美国 (US)
星等 :
--
轨道信息
数据来源 国际轨道数据
星历时间: 2026-04-30T22:00:02+0800
13小时前
查看轨道信息
半长轴: 6840.952km
偏心率: 0.0001163
轨道倾角: 53.158°
近地点辐角 83.079°
升交点赤经 183.817°
平近点角 188.137°
近地点: 462.019km
远地点: 463.611km
周期: 93.850分钟
每日圈数: 15.343627
详细信息
固有亮度:
5
最大亮度:
2.5
卫星平台:
Starlink V1.0
覆盖范围:
全球
运营商:
太空探索技术公司
运营商所在国:
美国
制造商(研发单位):
太空探索技术公司
制造商所在国:
美国
使用方式:
暂无
卫星简介
Starlink 计划是 SpaceX 推出的全球卫星互联网项目,通过发射低轨道卫星,为全球尤其是偏远地区提供高速、低延迟的互联网服务。自 2019 年起,Starlink 已部署数千颗卫星,旨在缩小全球数字鸿沟,推动互联网普及。该项目还为军事、航空等行业提供通信支持,带来广泛经济效益。
2D轨道图
3D轨道图
轨道高度分析图
轨道倾角分析图
轨道综合分析图
查看轨道综合分析图